Weather Service Report


600 
ASUS43 KLSX 190010
RWRMO 

WEATHER SUMMARY FOR MISSOURI
NATIONAL WEATHER SERVICE SPRINGFIELD MO
600 PM CST WED JAN 18 2017

NOTE: "FAIR" INDICATES FEW OR NO CLOUDS BELOW 12,000 FEET WITH NO
       SIGNIFICANT WEATHER AND/OR OBSTRUCTIONS TO VISIBILITY.
       CURRENT SKY AND/OR WEATHER CONDITIONS ARE NOT AVAILABLE FOR
       CHILLICOTHE AND FARMINGTON.

MOZ001>031-035>038-043-044-053-054-190100-
...NORTHERN AND WESTERN MISSOURI...
  
CITY           SKY/WX    TMP DP  RH WIND       PRES   REMARKS
KANSAS CTY INT PTCLDY    41  34  76 SE7       29.99F                  
6HR MIN TEMP:  36; 6HR MAX TEMP:  48;                                

KANSAS C DTWN  CLEAR     45  36  70 SE8       29.99F                  
6HR MIN TEMP:  39; 6HR MAX TEMP:  50;                                

LEE'S SUMMIT   CLEAR     43  38  82 SE6       29.99F                  
6HR MIN TEMP:  37; 6HR MAX TEMP:  49;                                

ST JOSEPH      CLEAR     40  37  89 SE8       29.99F                  
6HR MIN TEMP:  39; 6HR MAX TEMP:  49;                                

CHILLICOTHE      N/A     38  36  92 SE3       30.04F                  
6HR MIN TEMP:  37; 6HR MAX TEMP:  42;                                

KIRKSVILLE     PTCLDY    35  33  92 S3        30.04F FOG              
6HR MIN TEMP:  35; 6HR MAX TEMP:  40;                                

     
$$
MOZ066>068-077>081-088>096-101>105-190100-
...SOUTHWEST MISSOURI...
  
CITY           SKY/WX    TMP DP  RH WIND       PRES   REMARKS
SPRINGFIELD    CLOUDY    47  39  74 SE13      30.03F                  
6HR MIN TEMP:  46; 6HR MAX TEMP:  50;                                

JOPLIN         CLOUDY    52  42  69 SW6       30.02F                  
6HR MIN TEMP:  46; 6HR MAX TEMP:  54;                                

BRANSON        CLOUDY    41  41 100 E6        30.06F FOG              
               
$$
MOZ032>034-039>042-045>050-055>058-069>072-190100-
...CENTRAL MISSOURI...  
  
CITY           SKY/WX    TMP DP  RH WIND       PRES   REMARKS
COLUMBIA       CLEAR     46  34  62 E3        30.05F                  
6HR MIN TEMP:  40; 6HR MAX TEMP:  50;                                

JEFFERSON CITY CLOUDY    43  35  73 CALM      30.06S                  
6HR MIN TEMP:  42; 6HR MAX TEMP:  50;                                

ROLLA          CLOUDY    47  35  63 S8        30.05R                  
6HR MIN TEMP:  44; 6HR MAX TEMP:  51;                                

SEDALIA        CLOUDY    48  40  73 E3        30.04F                  
6HR MIN TEMP:  40; 6HR MAX TEMP:  51;                                

WHITEMAN AFB   CLOUDY    46  43  88 SE5       30.01F                  
WARRENSBURG    CLOUDY    45  37  76 E5        30.01F                  
OSAGE BEACH    CLOUDY    51  34  52 SE6       30.05F                  
               
$$
MOZ051-052-059>065-190100-
...EAST CENTRAL MISSOURI...
  
CITY           SKY/WX    TMP DP  RH WIND       PRES   REMARKS
ST LOUIS INTL  CLOUDY    46  34  62 S7        30.10S                  
6HR MIN TEMP:  46; 6HR MAX TEMP:  49;                                

SPIRIT OF STL  MOCLDY    44  37  76 CALM      30.10R                  
6HR MIN TEMP:  44; 6HR MAX TEMP:  49;                                

ST CHARLES     CLOUDY    41  37  86 S6        30.10R                  
6HR MIN TEMP:  41; 6HR MAX TEMP:  48;                                

                   
$$
MOZ072>076-082>087-097>100-106>115-190100-
...SOUTH CENTRAL AND SOUTHEAST MISSOURI...
  
CITY           SKY/WX    TMP DP  RH WIND       PRES   REMARKS
CAPE GIRARDEAU CLOUDY    42  38  85 S3        30.12S                  
6HR MIN TEMP:  42; 6HR MAX TEMP:  44;                                

FARMINGTON     MOCLDY    42  36  79 S8        30.09F                  
6HR MIN TEMP:  40; 6HR MAX TEMP:  45;                                

POPLAR BLUFF   CLOUDY    44  41  89 CALM      30.14R                  
6HR MIN TEMP:  42; 6HR MAX TEMP:  44;                                

WEST PLAINS    CLOUDY    42  39  89 E3        30.09F                  
6HR MIN TEMP:  39; 6HR MAX TEMP:  42;                                

                                       
$$
  

Return to Home page


Western Regional Climate Center, wrcc@dri.edu